Погода в Победе

Россия / Омская область     54°03′01″N   74°29′17″E
темп.,
°C
ветер,
м/с
пор.,
м/с
влажн.,
%
обл.,
%
осадки,
мм/ч
давл.,
гПа
погр.,
м
11 апреля, вс
вс1100:000всв5791100 0.0 1041404
03:000всв4689100 0.0 1042458
06:00+1всв4584100 0.0 1042267
09:00+1в4490100 0.0 1043145
12:00+2в2310084 0.0 1042233
15:00+3всв239951 0.0 1042244
18:00+2в239989 0.0 1042245
21:000вюв2395100 0.0 1041172
12 апреля, пн
пн1200:000ю229276 0.0 103955
03:00−2юз119718 0.0 103816
06:00−2зюз2398100 0.0 103848
09:00+1зюз359291 0.0 1037170
12:00+5зюз4674100 0.0 1036306
15:00+8зюз566547 0.0 1034462
18:00+7з368090 0.0 1033125
21:00+3зсз3482100 0.0 103443
13 апреля, вт
вт1300:00+3ссз3697100 0.6 1034137
03:00+3с4898100 0.1 1035228
06:00+1с379653 0.1 1037122
09:00+4с35790 0.0 1038231
12:00+8ссз46570 0.0 1039824
15:00+9ссз45471 0.0 10381094
18:00+10сз45430 0.0 10381078
21:00+6сз33635 0.0 103934
14 апреля, ср
ср1400:00+5сз23722 0.0 103922
03:00+4з33755 0.0 103828
06:00+3з337819 0.0 103732
09:00+6зюз356770 0.0 1037226
12:00+10зюз564843 0.0 1035746
15:00+12зюз6737100 0.0 1032962
18:00+12з5842100 0.0 1030824
21:00+9з486390 0.0 1028130
15 апреля, чт
чт1500:00+7з46755 0.0 102898
03:00+6з34815 0.0 102655
06:00+5зсз33845 0.0 102630
09:00+9з34725 0.0 1025195
12:00+14з45613 0.0 1023631
15:00+16з45550 0.0 10221062
18:00+17з46545 0.0 10201189
21:00+12з34725 0.0 102056